Kansas City International, MO

5:50 AM CST on November 20, 2019 (GMT -0600)
Kansas City International

Weather History for KMCI - October, 2019

Change the Weather History Date:

Monday, October 21, 2019

  Actual Average Record
Temperature  
Mean Temperature 51 °F 55 °F  
Max Temperature 57 °F 65 °F 89 °F (1978)
Min Temperature 44 °F 44 °F 24 °F (1987)
Degree Days  
Heating Degree Days 14 11  
Month to date heating degree days 209 167  
Since 1 July heating degree days 209 234  
Cooling Degree Days 0 0  
Month to date cooling degree days 22 24  
Year to date cooling degree days 1449 1356  
Moisture  
Dew Point 43 °F    
Average Humidity 76    
Maximum Humidity 100    
Minimum Humidity 51    
Precipitation  
Precipitation T in 0.10 in 4.54 in (1908)
Month to date precipitation 1.42 2.28  
Year to date precipitation 50.29 34.30  
Snow  
Snow 0.00 in 0.00 in 0.00 in ()
Month to date snowfall 0.0 0.1  
Since 1 July snowfall T 0.1  
Since 1 September snowfall T 0.1  
Snow Depth 0.00 in    
Sea Level Pressure  
Sea Level Pressure 29.59 in    
Wind  
Wind Speed 14 mph (West)    
Max Wind Speed 26 mph    
Max Gust Speed 37 mph    
Visibility 9 miles    
Events Rain , Thunderstorm    
T = Trace of Precipitation, MM = Missing Value Source: NWS Daily Summary

Daily Weather History Graph

Daily Weather History Graph

Search for Another Location

Airport or City:

Astronomy

Oct. 21, 2019 Rise Set
Actual Time 7:34 AM CDT 6:31 PM CDT
Civil Twilight 7:07 AM CDT 6:58 PM CDT
Nautical Twilight 6:36 AM CDT 7:30 PM CDT
Astronomical Twilight 6:05 AM CDT 8:01 PM CDT
Moon No Moon Rise 2:52 PM CDT (10/21)
Length of Visible Light 11h 51m
Length of Day
10h 57m
Waning Gibbous, 48% of the Moon is Illuminated
Oct 21
Waning Gibbous
Oct 27
New
Nov 4
First Quarter
Nov 12
Full
Nov 19
Last Quarter

Hourly Weather History & Observations

Time (CDT) Temp. Windchill Dew Point Humidity Pressure Visibility Wind Dir Wind Speed Gust Speed Precip Events Conditions
12:00 AM 57.0 °F - 55.9 °F 96% 29.62 in 2.0 mi WNW 16.1 mph 25.3 mph 0.06 in Rain Rain
12:04 AM 57.0 °F - 55.9 °F 96% 29.63 in 3.0 mi WNW 13.8 mph 25.3 mph 0.08 in Rain Rain
12:39 AM 55.0 °F - 54.0 °F 96% 29.59 in 6.0 mi North 3.5 mph - 0.09 in Rain , Thunderstorm Light Rain
12:53 AM 55.0 °F - 55.0 °F 100% 29.54 in 10.0 mi ENE 9.2 mph - 0.11 in Rain Light Rain
1:53 AM 54.0 °F - 51.1 °F 90% 29.50 in 10.0 mi SE 5.8 mph - 0.00 in   Overcast
2:53 AM 52.0 °F - 51.1 °F 97% 29.47 in 10.0 mi WSW 5.8 mph - N/A   Overcast
3:53 AM 52.0 °F - 51.1 °F 97% 29.49 in 10.0 mi SW 9.2 mph - N/A   Scattered Clouds
4:53 AM 48.9 °F - 48.9 °F 100% 29.49 in 10.0 mi WSW 9.2 mph - N/A   Clear
5:53 AM 46.9 °F - 41.0 °F 80% 29.50 in 10.0 mi West 9.2 mph - N/A   Scattered Clouds
6:53 AM 45.0 °F 39.7 °F 39.0 °F 80% 29.50 in 10.0 mi West 10.4 mph - N/A   Partly Cloudy
7:53 AM 44.1 °F 38.6 °F 39.0 °F 82% 29.51 in 10.0 mi WSW 10.4 mph - N/A   Partly Cloudy
8:53 AM 46.0 °F 40.2 °F 39.9 °F 79% 29.52 in 10.0 mi WSW 12.7 mph 20.7 mph N/A   Partly Cloudy
9:53 AM 48.9 °F - 39.9 °F 71% 29.53 in 10.0 mi SW 17.3 mph 25.3 mph N/A   Partly Cloudy
10:53 AM 51.1 °F - 39.9 °F 66% 29.54 in 10.0 mi WSW 15.0 mph 29.9 mph N/A   Mostly Cloudy
11:53 AM 51.1 °F - 39.0 °F 63% 29.54 in 10.0 mi West 16.1 mph 31.1 mph N/A   Overcast
12:53 PM 52.0 °F - 39.0 °F 61% 29.57 in 10.0 mi WSW 15.0 mph 31.1 mph N/A   Overcast
1:53 PM 53.1 °F - 39.0 °F 59% 29.58 in 10.0 mi WSW 20.7 mph 28.8 mph N/A   Overcast
2:53 PM 54.0 °F - 39.0 °F 57% 29.58 in 10.0 mi SW 16.1 mph 34.5 mph N/A   Mostly Cloudy
3:53 PM 55.0 °F - 37.9 °F 53% 29.60 in 10.0 mi West 23.0 mph 34.5 mph N/A   Overcast
4:53 PM 54.0 °F - 41.0 °F 62% 29.64 in 10.0 mi West 17.3 mph 28.8 mph N/A   Mostly Cloudy
5:53 PM 53.1 °F - 41.0 °F 64% 29.65 in 10.0 mi WSW 13.8 mph 25.3 mph N/A   Mostly Cloudy
6:53 PM 52.0 °F - 39.0 °F 61% 29.69 in 10.0 mi West 10.4 mph 21.9 mph N/A   Scattered Clouds
7:53 PM 52.0 °F - 37.9 °F 59% 29.73 in 10.0 mi West 15.0 mph 31.1 mph N/A   Mostly Cloudy
8:53 PM 51.1 °F - 39.0 °F 63% 29.75 in 10.0 mi West 16.1 mph 26.5 mph N/A   Overcast
10:53 PM 48.9 °F - 39.0 °F 69% 29.82 in 10.0 mi WNW 15.0 mph 31.1 mph N/A   Overcast
11:53 PM 48.0 °F - 37.9 °F 68% 29.83 in 10.0 mi WNW 11.5 mph 25.3 mph N/A   Clear